POLIS1B WMSA-WSSL

Flight info

Callsign POLIS1B
Flight time 0h 55m
Altitude 17000
Route BATAR2L BATAR A464 TOPOR DCT GUMPU DCT ALFA
Aircraft B350/L-SBGRW/S

Departure

Time 2026-04-25 23:33
Airport Sultan Abdul Aziz Shah International Airport (WMSA)

Arrival

Time 2026-04-26 00:28
Airport Seletar Airport (WSSL)
Time Latitude Longitude Altitude Speed Heading
2026-04-25 23:04 3.12968 101.55358 81 ft 0 kts 150°
2026-04-25 23:27 3.12966 101.55360 81 ft 1 kts 150°
2026-04-25 23:27 3.12947 101.55363 82 ft 4 kts 188°
2026-04-25 23:27 3.12919 101.55341 83 ft 6 kts 237°
2026-04-25 23:27 3.12908 101.55286 83 ft 11 kts 278°
2026-04-25 23:28 3.12971 101.55215 79 ft 17 kts 328°
2026-04-25 23:28 3.13091 101.55142 74 ft 22 kts 331°
2026-04-25 23:28 3.13236 101.55057 70 ft 25 kts 324°
2026-04-25 23:28 3.13360 101.54987 68 ft 12 kts 331°
2026-04-25 23:29 3.13448 101.54941 68 ft 15 kts 335°
2026-04-25 23:29 3.13517 101.54849 68 ft 18 kts 273°
2026-04-25 23:29 3.13503 101.54800 68 ft 0 kts 231°
2026-04-25 23:31 3.13483 101.54774 68 ft 14 kts 226°
2026-04-25 23:32 3.13400 101.54740 68 ft 0 kts 143°
2026-04-25 23:32 3.13393 101.54745 68 ft 12 kts 145°
2026-04-25 23:32 3.13170 101.54886 71 ft 59 kts 151°
2026-04-25 23:32 3.12580 101.55226 126 ft 133 kts 152°
2026-04-25 23:33 3.11700 101.55682 759 ft 146 kts 154°
2026-04-25 23:33 3.10758 101.56108 1399 ft 160 kts 158°
2026-04-25 23:33 3.09720 101.56610 1981 ft 171 kts 153°
2026-04-25 23:33 3.08627 101.57140 2619 ft 177 kts 153°
2026-04-25 23:34 3.07454 101.57510 3266 ft 184 kts 178°
2026-04-25 23:34 3.06164 101.57469 3903 ft 187 kts 180°
2026-04-25 23:34 3.04872 101.57451 4544 ft 188 kts 179°
2026-04-25 23:34 3.03565 101.57444 5159 ft 190 kts 178°
2026-04-25 23:35 3.02235 101.57442 5757 ft 192 kts 178°
2026-04-25 23:35 3.00892 101.57441 6337 ft 194 kts 177°
2026-04-25 23:35 2.99532 101.57441 6913 ft 195 kts 177°
2026-04-25 23:35 2.98184 101.57442 7463 ft 196 kts 177°
2026-04-25 23:36 2.96807 101.57442 8028 ft 195 kts 178°
2026-04-25 23:36 2.95458 101.57442 8549 ft 196 kts 178°
2026-04-25 23:36 2.94089 101.57441 9057 ft 197 kts 177°
2026-04-25 23:36 2.92714 101.57442 9544 ft 197 kts 177°
2026-04-25 23:37 2.91338 101.57441 10036 ft 197 kts 177°
2026-04-25 23:37 2.89964 101.57441 10490 ft 198 kts 176°
2026-04-25 23:37 2.88579 101.57440 10930 ft 199 kts 176°
2026-04-25 23:37 2.87194 101.57441 11369 ft 199 kts 177°
2026-04-25 23:38 2.85806 101.57440 11787 ft 200 kts 177°
2026-04-25 23:38 2.84420 101.57439 12191 ft 200 kts 176°
2026-04-25 23:38 2.83013 101.57438 12591 ft 201 kts 176°
2026-04-25 23:38 2.81617 101.57437 12960 ft 202 kts 176°
2026-04-25 23:39 2.80199 101.57436 13345 ft 202 kts 177°
2026-04-25 23:39 2.78792 101.57434 13708 ft 202 kts 176°
2026-04-25 23:39 2.77391 101.57432 14054 ft 203 kts 177°
2026-04-25 23:39 2.75965 101.57428 14400 ft 203 kts 176°
2026-04-25 23:40 2.74539 101.57425 14732 ft 204 kts 175°
2026-04-25 23:40 2.73112 101.57420 15053 ft 205 kts 176°
2026-04-25 23:40 2.71687 101.57414 15378 ft 204 kts 176°
2026-04-25 23:40 2.70262 101.57407 15697 ft 204 kts 176°
2026-04-25 23:41 2.68852 101.57398 15999 ft 204 kts 175°
2026-04-25 23:41 2.67422 101.57388 16295 ft 204 kts 175°
2026-04-25 23:41 2.66002 101.57471 16547 ft 199 kts 158°
2026-04-25 23:41 2.64899 101.58205 16764 ft 188 kts 123°
2026-04-25 23:42 2.64311 101.59329 17026 ft 185 kts 114°
2026-04-25 23:42 2.63693 101.60519 17095 ft 197 kts 116°
2026-04-25 23:42 2.63008 101.61762 17105 ft 210 kts 117°
2026-04-25 23:42 2.62274 101.63066 17109 ft 222 kts 117°
2026-04-25 23:43 2.61487 101.64451 17104 ft 233 kts 117°
2026-04-25 23:43 2.60653 101.65906 16929 ft 250 kts 117°
2026-04-25 23:43 2.59773 101.67440 16895 ft 258 kts 117°
2026-04-25 23:43 2.58874 101.68999 16886 ft 264 kts 117°
2026-04-25 23:44 2.57936 101.70624 16885 ft 269 kts 118°
2026-04-25 23:44 2.56991 101.72256 16882 ft 273 kts 118°
2026-04-25 23:44 2.56038 101.73902 16884 ft 276 kts 118°
2026-04-25 23:44 2.55071 101.75569 16886 ft 278 kts 118°
2026-04-25 23:45 2.54099 101.77243 16881 ft 281 kts 118°
2026-04-25 23:45 2.53115 101.78935 16886 ft 282 kts 118°
2026-04-25 23:45 2.52122 101.80640 16885 ft 284 kts 118°
2026-04-25 23:45 2.51126 101.82346 16892 ft 284 kts 118°
2026-04-25 23:46 2.50131 101.84044 16887 ft 285 kts 118°
2026-04-25 23:46 2.49113 101.85777 16890 ft 286 kts 118°
2026-04-25 23:46 2.48109 101.87476 16893 ft 286 kts 118°
2026-04-25 23:46 2.47004 101.89136 16885 ft 291 kts 130°
2026-04-25 23:47 2.45364 101.90347 16929 ft 294 kts 144°
2026-04-25 23:47 2.43621 101.91453 16901 ft 296 kts 144°
2026-04-25 23:47 2.41864 101.92559 16894 ft 296 kts 145°
2026-04-25 23:47 2.40123 101.93649 16894 ft 296 kts 145°
2026-04-25 23:48 2.38354 101.94756 16894 ft 297 kts 144°
2026-04-25 23:48 2.36600 101.95851 16888 ft 297 kts 145°
2026-04-25 23:48 2.34859 101.96939 16895 ft 297 kts 145°
2026-04-25 23:48 2.33093 101.98041 16892 ft 297 kts 145°
2026-04-25 23:49 2.31342 101.99134 16888 ft 297 kts 144°
2026-04-25 23:49 2.29594 102.00226 16888 ft 297 kts 144°
2026-04-25 23:49 2.27817 102.01335 16889 ft 297 kts 144°
2026-04-25 23:49 2.26064 102.02430 16890 ft 297 kts 144°
2026-04-25 23:50 2.24305 102.03528 16888 ft 297 kts 144°
2026-04-25 23:50 2.22558 102.04619 16883 ft 298 kts 144°
2026-04-25 23:50 2.20785 102.05726 16883 ft 297 kts 145°
2026-04-25 23:50 2.19021 102.06827 16887 ft 297 kts 144°
2026-04-25 23:51 2.17285 102.07910 16885 ft 297 kts 145°
2026-04-25 23:51 2.15622 102.09145 16830 ft 294 kts 131°
2026-04-25 23:51 2.14584 102.10857 16855 ft 287 kts 108°
2026-04-25 23:51 2.13952 102.12740 16897 ft 286 kts 110°
2026-04-25 23:52 2.13183 102.14553 16888 ft 287 kts 113°
2026-04-25 23:52 2.12318 102.16361 16886 ft 288 kts 115°
2026-04-25 23:52 2.11413 102.18155 16881 ft 288 kts 115°
2026-04-25 23:52 2.10490 102.19938 16882 ft 288 kts 116°
2026-04-25 23:53 2.09567 102.21700 16886 ft 289 kts 116°
2026-04-25 23:53 2.08628 102.23487 16882 ft 289 kts 116°
2026-04-25 23:53 2.07696 102.25255 16880 ft 289 kts 116°
2026-04-25 23:53 2.06750 102.27048 16879 ft 289 kts 116°
2026-04-25 23:54 2.05812 102.28822 16884 ft 289 kts 116°
2026-04-25 23:54 2.04878 102.30591 16886 ft 290 kts 116°
2026-04-25 23:54 2.03932 102.32381 16885 ft 289 kts 116°
2026-04-25 23:54 2.02990 102.34165 16882 ft 289 kts 116°
2026-04-25 23:55 2.02059 102.35927 16876 ft 289 kts 116°
2026-04-25 23:55 2.01118 102.37707 16880 ft 289 kts 116°
2026-04-25 23:55 2.00178 102.39487 16876 ft 289 kts 116°
2026-04-25 23:55 1.99229 102.41283 16876 ft 289 kts 116°
2026-04-25 23:56 1.98294 102.43053 16880 ft 289 kts 116°
2026-04-25 23:56 1.97355 102.44813 16882 ft 290 kts 116°
2026-04-25 23:56 1.96402 102.46596 16883 ft 290 kts 116°
2026-04-25 23:56 1.95453 102.48373 16884 ft 290 kts 116°
2026-04-25 23:57 1.94504 102.50149 16877 ft 290 kts 116°
2026-04-25 23:57 1.93543 102.51945 16880 ft 290 kts 116°
2026-04-25 23:57 1.92606 102.53699 16881 ft 290 kts 116°
2026-04-25 23:57 1.91653 102.55479 16881 ft 289 kts 116°
2026-04-25 23:58 1.90705 102.57252 16876 ft 289 kts 116°
2026-04-25 23:58 1.89749 102.59042 16871 ft 289 kts 116°
2026-04-25 23:58 1.88810 102.60799 16877 ft 289 kts 116°
2026-04-25 23:58 1.87851 102.62592 16875 ft 289 kts 116°
2026-04-25 23:59 1.86911 102.64349 16876 ft 289 kts 116°
2026-04-25 23:59 1.85956 102.66135 16882 ft 290 kts 116°
2026-04-25 23:59 1.85003 102.67917 16880 ft 290 kts 116°
2026-04-25 23:59 1.84057 102.69686 16878 ft 290 kts 116°
2026-04-26 00:00 1.83103 102.71469 16881 ft 290 kts 116°
2026-04-26 00:00 1.82152 102.73247 16888 ft 290 kts 116°
2026-04-26 00:00 1.81198 102.75032 16893 ft 290 kts 116°
2026-04-26 00:00 1.80246 102.76811 16895 ft 290 kts 116°
2026-04-26 00:01 1.79303 102.78574 16893 ft 290 kts 116°
2026-04-26 00:01 1.78350 102.80357 16903 ft 290 kts 116°
2026-04-26 00:01 1.77399 102.82136 16898 ft 290 kts 117°
2026-04-26 00:01 1.76445 102.83918 16896 ft 290 kts 117°
2026-04-26 00:02 1.75493 102.85698 16897 ft 290 kts 116°
2026-04-26 00:02 1.74539 102.87482 16894 ft 290 kts 116°
2026-04-26 00:02 1.73627 102.89263 16873 ft 290 kts 111°
2026-04-26 00:02 1.73039 102.91190 16905 ft 288 kts 105°
2026-04-26 00:03 1.72496 102.93108 16898 ft 288 kts 105°
2026-04-26 00:03 1.71943 102.95042 16892 ft 288 kts 105°
2026-04-26 00:03 1.71394 102.96953 16885 ft 289 kts 105°
2026-04-26 00:03 1.70839 102.98878 16884 ft 288 kts 105°
2026-04-26 00:04 1.70282 103.00813 16884 ft 288 kts 105°
2026-04-26 00:04 1.69730 103.02724 16975 ft 285 kts 105°
2026-04-26 00:04 1.69177 103.04639 16915 ft 288 kts 105°
2026-04-26 00:04 1.68624 103.06553 16849 ft 286 kts 105°
2026-04-26 00:05 1.68076 103.08453 16460 ft 286 kts 105°
2026-04-26 00:05 1.67524 103.10364 16108 ft 282 kts 105°
2026-04-26 00:05 1.66993 103.12204 15750 ft 277 kts 105°
2026-04-26 00:05 1.66462 103.14044 15392 ft 272 kts 105°
2026-04-26 00:06 1.65939 103.15855 15028 ft 269 kts 105°
2026-04-26 00:06 1.65429 103.17622 14667 ft 266 kts 105°
2026-04-26 00:06 1.64919 103.19387 14305 ft 263 kts 105°
2026-04-26 00:06 1.64413 103.21140 13948 ft 261 kts 105°
2026-04-26 00:07 1.63916 103.22863 13598 ft 260 kts 105°
2026-04-26 00:07 1.63416 103.24596 13234 ft 259 kts 105°
2026-04-26 00:07 1.62917 103.26322 12867 ft 258 kts 105°
2026-04-26 00:07 1.62422 103.28037 12509 ft 257 kts 105°
2026-04-26 00:08 1.61828 103.29706 12149 ft 258 kts 119°
2026-04-26 00:08 1.60527 103.30941 11833 ft 263 kts 147°
2026-04-26 00:08 1.58910 103.31780 11495 ft 261 kts 150°
2026-04-26 00:08 1.57286 103.32612 11132 ft 259 kts 150°
2026-04-26 00:09 1.55694 103.33427 10769 ft 258 kts 150°
2026-04-26 00:09 1.54093 103.34242 10402 ft 257 kts 150°
2026-04-26 00:09 1.52506 103.35053 10034 ft 254 kts 150°
2026-04-26 00:09 1.50895 103.35747 9677 ft 251 kts 156°
2026-04-26 00:10 1.49255 103.36359 9307 ft 248 kts 156°
2026-04-26 00:10 1.47640 103.36968 8939 ft 245 kts 156°
2026-04-26 00:10 1.46072 103.37554 8564 ft 240 kts 156°
2026-04-26 00:10 1.44495 103.38098 8192 ft 236 kts 159°
2026-04-26 00:11 1.42928 103.38571 7823 ft 232 kts 160°
2026-04-26 00:11 1.41384 103.38991 7463 ft 230 kts 163°
2026-04-26 00:11 1.39829 103.39369 7094 ft 228 kts 164°
2026-04-26 00:11 1.38273 103.39597 6746 ft 227 kts 179°
2026-04-26 00:12 1.36692 103.39517 6384 ft 225 kts 181°
2026-04-26 00:12 1.35139 103.39432 6014 ft 222 kts 181°
2026-04-26 00:12 1.33598 103.39347 5641 ft 218 kts 181°
2026-04-26 00:12 1.32087 103.39265 5270 ft 216 kts 181°
2026-04-26 00:13 1.30601 103.39217 4900 ft 213 kts 179°
2026-04-26 00:13 1.29123 103.39199 4530 ft 211 kts 179°
2026-04-26 00:13 1.27643 103.39210 4149 ft 209 kts 173°
2026-04-26 00:13 1.26214 103.39356 3782 ft 207 kts 172°
2026-04-26 00:14 1.24784 103.39525 3410 ft 206 kts 170°
2026-04-26 00:14 1.23387 103.39778 3040 ft 204 kts 165°
2026-04-26 00:14 1.22001 103.40103 2671 ft 203 kts 165°
2026-04-26 00:14 1.20654 103.40525 2285 ft 201 kts 154°
2026-04-26 00:15 1.19565 103.41335 1996 ft 188 kts 123°
2026-04-26 00:15 1.19061 103.42474 1985 ft 175 kts 108°
2026-04-26 00:15 1.18665 103.43601 1983 ft 171 kts 108°
2026-04-26 00:15 1.18324 103.44732 1978 ft 167 kts 102°
2026-04-26 00:16 1.18084 103.45855 1985 ft 164 kts 101°
2026-04-26 00:16 1.17842 103.46957 1984 ft 161 kts 101°
2026-04-26 00:16 1.17607 103.48051 1986 ft 159 kts 101°
2026-04-26 00:16 1.17352 103.49127 1995 ft 165 kts 103°
2026-04-26 00:17 1.17039 103.50351 2022 ft 195 kts 103°
2026-04-26 00:17 1.16690 103.51726 2015 ft 212 kts 103°
2026-04-26 00:17 1.16328 103.53151 1993 ft 208 kts 103°
2026-04-26 00:17 1.15974 103.54538 1988 ft 203 kts 103°
2026-04-26 00:18 1.15628 103.55884 1981 ft 197 kts 103°
2026-04-26 00:18 1.15272 103.57188 1979 ft 191 kts 105°
2026-04-26 00:18 1.14905 103.58426 1969 ft 183 kts 103°
2026-04-26 00:18 1.14695 103.59667 1962 ft 177 kts 93°
2026-04-26 00:19 1.14800 103.60873 1971 ft 173 kts 82°
2026-04-26 00:19 1.14980 103.62054 1975 ft 172 kts 81°
2026-04-26 00:19 1.15162 103.63229 1975 ft 171 kts 81°
2026-04-26 00:19 1.15369 103.64409 1973 ft 170 kts 79°
2026-04-26 00:20 1.15599 103.65559 1971 ft 170 kts 76°
2026-04-26 00:20 1.16068 103.66642 1969 ft 168 kts 62°
2026-04-26 00:20 1.16648 103.67655 1977 ft 168 kts 61°
2026-04-26 00:20 1.17177 103.68573 1977 ft 167 kts 61°
2026-04-26 00:21 1.17759 103.69579 1974 ft 167 kts 60°
2026-04-26 00:21 1.18377 103.70579 1978 ft 169 kts 59°
2026-04-26 00:21 1.19019 103.71562 1980 ft 169 kts 56°
2026-04-26 00:21 1.19738 103.72504 1976 ft 167 kts 53°
2026-04-26 00:22 1.20454 103.73415 1976 ft 165 kts 53°
2026-04-26 00:22 1.21186 103.74300 1976 ft 165 kts 51°
2026-04-26 00:22 1.21936 103.75174 1975 ft 166 kts 47°
2026-04-26 00:22 1.22878 103.75843 1971 ft 166 kts 31°
2026-04-26 00:23 1.23893 103.76403 1979 ft 165 kts 31°
2026-04-26 00:23 1.24894 103.76951 1981 ft 163 kts 31°
2026-04-26 00:23 1.25888 103.77496 1983 ft 162 kts 31°
2026-04-26 00:23 1.26870 103.78033 1993 ft 161 kts 31°
2026-04-26 00:24 1.27846 103.78565 2006 ft 154 kts 31°
2026-04-26 00:24 1.28771 103.79084 1986 ft 150 kts 32°
2026-04-26 00:24 1.29663 103.79588 1983 ft 145 kts 30°
2026-04-26 00:24 1.30559 103.80026 1986 ft 144 kts 27°
2026-04-26 00:25 1.31523 103.80463 2011 ft 159 kts 27°
2026-04-26 00:25 1.32585 103.80949 2011 ft 173 kts 28°
2026-04-26 00:25 1.33679 103.81537 1998 ft 176 kts 31°
2026-04-26 00:25 1.34717 103.82107 1964 ft 167 kts 32°
2026-04-26 00:26 1.35704 103.82742 1700 ft 169 kts 38°
2026-04-26 00:26 1.36644 103.83450 1496 ft 167 kts 38°
2026-04-26 00:26 1.37591 103.84123 1159 ft 167 kts 35°
2026-04-26 00:26 1.38556 103.84728 864 ft 157 kts 32°
2026-04-26 00:27 1.39448 103.85284 456 ft 146 kts 35°
2026-04-26 00:27 1.40231 103.85819 207 ft 125 kts 34°
2026-04-26 00:27 1.40932 103.86269 68 ft 116 kts 33°
2026-04-26 00:27 1.41547 103.86672 47 ft 82 kts 31°
2026-04-26 00:28 1.41740 103.86781 43 ft 13 kts 304°
2026-04-26 00:28 1.41779 103.86701 44 ft 0 kts 300°
2026-04-26 00:28 1.41815 103.86650 44 ft 20 kts 306°
2026-04-26 00:28 1.41826 103.86635 44 ft 0 kts 300°
2026-04-26 00:29 1.41841 103.86607 43 ft 8 kts 302°
2026-04-26 00:29 1.41902 103.86595 41 ft 1 kts 48°
2026-04-26 00:29 1.41890 103.86615 42 ft 6 kts 131°
2026-04-26 00:29 1.41877 103.86634 42 ft 0 kts 124°